Погода в Бугрышихе

Россия / Алтайский край     51°16′48″N   82°47′27″E
темп.,
°C
ветер,
м/с
пор.,
м/с
влажн.,
%
обл.,
%
осадки,
мм/ч
давл.,
гПа
погр.,
м
2 марта, вт
вт201:00−5ююз71692100 3.3 1016885
04:00−5ююз81791100 1.4 1016824
07:00−5ююз51592100 2.2 1017698
10:00−4ююз51192100 0.6 1018769
13:00−2юз61190100 1.1 1018987
16:00−2ююз51091100 0.5 1017921
19:00−3ююз2897100 1.3 1016537
22:00−4ю0298100 2.8 1016167
3 марта, ср
ср301:00−4юз0398100 4.9 1015159
04:00−5з1297100 2.0 1016146
07:00−7юз1297100 3.1 101863
10:00−7зюз2793100 0.4 1020443
13:00−7зюз3789100 0.7 1021693
16:00−8юз61089100 0.3 1023991
19:00−11ююз41189100 0.6 1025665
22:00−12ююз4138853 0.1 1027498
4 марта, чт
чт401:00−12ююз4138836 0.1 1028481
04:00−12ююз4158731 0.0 1028575
07:00−10ююз4148057 0.0 1029630
10:00−8ююз41474100 0.0 1028673
13:00−5ююз51271100 0.0 1027748
16:00−4ююз6137171 0.0 1025934
19:00−6ю4147485 0.0 1025618
22:00−7ююз4146975 0.0 1025416
5 марта, пт
пт501:00−9ю467085 0.0 102396
04:00−11ю337139 0.0 102035
07:00−7ю3157270 0.0 1018545
10:00−5ююз61690100 0.9 1018826
13:00−4юз81591100 3.4 1021941
16:00−3юз61189100 0.9 10251100
19:00−5юз6129092 1.3 1029736
22:00−7ююз6168053 0.0 1030767
6 марта, сб
сб601:00−6ююз6168327 0.0 1030920
04:00−5ююз9188059 0.0 1030954
07:00−6ююз8187459 0.0 1029868
10:00−5ююз9177276 0.0 10281014
13:00−2ююз9177665 0.0 10261213
16:00−1ююз81675100 0.0 10231228
19:00−3ююз7167784 0.0 1022910
22:00−4ююз516770 0.0 1022707